ヒル彗星

385P/Hill (2019)

English version
Home page
Updated on March 6, 2020

---------------------------------------------------------------------

・ プロフィール

符号 385P/2019 P1
検出日 2019年8月2日
検出光度 20.4等
検出者 K. Sarneczky (Piszkesteto Station of Konkoly Observatory)

・ 写真集

・ 軌道要素

Epoch 2019 Oct. 4.0 TT = JDT 2458760.5
T 2019 Sept. 14.78291 TT                                Williams
q   2.5676053            (2000.0)            P               Q
n   0.11105360     Peri.   44.32694     +0.74850063     -0.66297017
a   4.2866132      Node   357.08057     +0.49896127     +0.57769852
e   0.4010177      Incl.   16.82647     +0.43678881     +0.47616696
P   8.88
From 303 observations 2010 Oct. 1-2019 Oct. 30, mean residual 0".6.

・ 光度変化

        m1 = 14.0 + 5 logΔ + 10.0 log r

---------------------------------------------------------------------

軌道要素はM.P.E.C. 2019-V116に掲載されたものです。
光度グラフはComet for Windowsで作成したものです。

---------------------------------------------------------------------

Copyright(C) Seiichi Yoshida (comet@aerith.net). All rights reserved.